SCP
0 0 0 0 0 0 0 0 0 0 0 0 0 0 0 0 0 0 0 0 0 0 0 0 0 0 0 0 0 0 0 0 0 0 0 0 0 0 0 0 0 0 0 0
0 0 0 0 0 0 0 0 0 0 0 0 0 0 0 0 0 0 0 0 0 0 0 0 0 0 0 0 0 0 0 0 0 0 0 0 0 0 0 0 0 0 0 0
0 0 0 0 0 0 0 0 0 0 0 0 0 0 0 0 0 0 0 0 0 0 0 0 0 0 0 0 0 0 0 0 0 0 0 0 0 0 0 0 0 0 0 0
0 0 0 0 0 0 0 0 0 0 0 0 0 0 0 0 0 0 0 0 0 0 0 0 0 0 0 0 0 0 0 0 0 0 0 0 0 0 0 0 0 0 0 0
0 0 0 0 0 0 0 0 0 0 0 0 0 0 0 0 0 0 0 0 0 0 0 0 0 0 0 0 0 0 0 0 0 0 0 0 0 0 0 0 0 0 0 0
0 0 0 0 0 0 0 0 0 0 0 0 0 0 0 0 0 0 0 0 0 0 0 0 0 0 0 0 0 0 0 0 0 0 0 0 0 0 0 0 0 0 0 0
0 0 0 0 0 0 0 0 0 0 0 0 0 0 0 0 0 0 0 0 0 0 0 0 0 0 0 0 0 0 0 0 0 0 0 0 0 0 0 0 0 0 0 0
0 0 0 0 0 0 0 0 0 0 0 0 0 0 0 0 0 0 0 0 0 0 0 0 0 0 0 0 0 0 0 0 0 0 0 0 0 0 0 0 0 0 0 0
0 0 0 0 0 0 0 0 0 0 0 0 0 0 0 0 0 0 0 0 0 0 0 0 0 0 0 0 0 0 0 0 0 0 0 0 0 0 0 0 0 0 0 0
0 0 0 0 0 0 0 0 0 0 0 0 0 0 0 0 0 0 0 0 0 0 0 0 0 0 0 0 0 0 0 0 0 0 0 0 0 0 0 0 0 0 0 0
0 0 0 0 0 0 0 0 0 0 0 0 0 0 0 0 0 0 0 0 0 0 0 0 0 0 0 0 0 0 0 0 0 0 0 0 0 0 0 0 0 0 0 0
0 0 0 0 0 0 0 0 0 0 0 0 0 0 0 0 0 0 0 0 0 0 0 0 0 0 0 0 0 0 0 0 0 0 0 0 0 0 0 0 0 0 0 0
0 0 0 0 0 0 0 0 0 0 0 0 0 0 0 0 0 0 0 0 0 0 0 0 0 0 0 0 0 0 0 0 0 0 0 0 0 0 0 0 0 0 0 0
0 0 0 0 0 0 0 0 0 0 0 0 0 0 0 0 0 0 0 0 0 0 0 0 0 0 0 0 0 0 0 0 0 0 0 0 0 0 0 0 0 0 0 0
0 0 0 0 0 0 0 0 0 0 0 0 0 0 0 0 0 0 0 0 0 0 0 0 0 0 0 0 0 0 0 0 0 0 0 0 0 0 0 0 0 0 0 0
0 0 0 0 0 0 0 0 0 0 0 0 0 0 0 0 0 0 0 0 0 0 0 0 0 0 0 0 0 0 0 0 0 0 0 0 0 0 0 0 0 0 0 0
0 0 0 0 0 0 0 0 0 0 0 0 0 0 0 0 0 0 0 0 0 0 0 0 0 0 0 0 0 0 0 0 0 0 0 0 0 0 0 0 0 0 0 0
0 0 0 0 0 0 0 0 0 0 0 0 0 0 0 0 0 0 0 0 0 0 0 0 0 0 0 0 0 0 0 0 0 0 0 0 0 0 0 0 0 0 0 0
0 0 0 0 0 0 0 0 0 0 0 0 0 0 0 0 0 0 0 0 0 0 0 0 0 0 0 0 0 0 0 0 0 0 0 0 0 0 0 0 0 0 0 1
0 0 0 0 0 0 0 0 0 0 0 0 0 0 0 0 0 0 0 0 0 0 0 0 0 0 0 0 0 0 0 0 0 0 0 0 0 0 0 0 0 0 0 0
0 0 0 0 0 0 0 0 0 0 0 0 0 0 0 0 0 0 0 0 0 0 0 0 0 0 0 0 0 0 0 0 0 0 0 0 0 0 0 0 0 0 0 0
0 0 0 0 0 0 0 0 0 0 0 0 0 0 0 0 0 0 0 0 0 0 0 0 0 0 0 0 0 0 0 0 0 0 0 0 0 0 0 0 0 0 0 0
0 0 0 0 0 0 0 0 0 0 0 0 0 0 0 0 0 0 0 0 0 0 0 0 0 0 0 0 0 0 0 0 0 0 0 0 0 0 0 0 0 0 0 0
0 0 0 0 0 0 0 0 0 0 0 0 0 0 0 0 0 0 0 0 0 0 0 0 0 0 0 0 0 0 0 0 0 0 0 0 0 0 0 0 0 0 0 0
0 0 0 0 0 0 0 0 0 0 0 0 0 0 0 0 0 0 0 0 0 0 0 0 0 0 0 0 0 0 0 0 0 0 0 0 0 0 0 0 0 0 0 0
0 0 0 0 0 0 0 0 0 0 0 0 0 0 0 0 0 0 0 0 0 0 0 0 0 0 0 0 0 0 0 0 0 0 0 0 0 0 0 0 0 0 0 0
Wind_Speed
12 13 19 24 27 24 20 21 23 21 16 17 24 25 22 19 17 19 20 20 20 20 19 18 18 19 19 19 20 21 21 20 17 14 13 13 13 12 11 11 13 14 14 14
13 21 24 22 23 24 23 23 23 17 15 16 20 24 22 22 22 20 21 21 21 20 19 17 17 18 20 21 21 22 22 21 20 16 15 13 13 11 10 9 12 15 15 15
22 18 18 20 22 23 24 24 23 17 11 14 16 22 23 22 22 21 21 22 22 21 21 19 18 19 20 21 22 20 23 23 23 20 14 11 10 9 10 13 12 15 16 16
19 20 19 21 23 22 22 22 21 18 14 12 15 16 21 21 22 23 23 23 23 22 21 20 18 19 20 21 21 22 22 23 23 21 18 19 15 15 17 13 12 14 16 16
13 14 18 23 24 22 18 14 17 17 17 15 14 15 16 17 22 23 24 24 23 22 21 21 19 19 19 19 19 19 21 22 22 22 22 21 18 16 13 13 15 15 14 16
16 14 14 16 18 20 14 11 12 13 12 18 21 18 16 17 22 21 22 22 22 22 21 20 18 16 16 16 16 17 19 21 21 23 23 23 22 19 16 17 15 14 11 13
11 14 15 13 12 14 16 11 8 11 13 15 19 19 18 16 18 20 20 20 20 20 19 19 18 17 16 16 17 17 19 20 21 22 23 23 23 21 20 18 16 15 12 12
7 9 12 13 15 12 18 18 12 9 12 13 15 19 17 17 17 18 18 18 18 18 18 17 17 16 16 16 17 18 19 19 20 21 22 21 21 16 14 17 14 15 12 13
5 7 6 11 13 14 14 17 15 10 9 10 10 14 16 12 16 18 18 18 18 17 17 16 15 15 15 15 16 18 18 18 19 20 20 19 20 18 16 16 15 13 12 12
5 8 7 8 10 15 12 10 9 10 10 12 11 16 14 15 19 19 20 19 18 15 14 14 13 13 13 13 14 15 16 17 17 18 17 14 18 18 16 15 15 14 14 13
5 7 6 5 9 12 12 12 8 8 9 10 11 11 10 13 15 17 19 18 16 15 14 13 11 11 12 12 12 13 14 14 15 16 16 16 16 16 15 14 15 14 13 14
4 5 7 8 6 6 10 11 10 9 9 12 11 8 3 8 9 10 12 13 12 10 10 10 10 10 11 12 12 12 13 13 14 14 15 15 15 15 15 14 14 14 13 13
4 4 6 4 3 2 6 9 10 9 8 11 13 10 2 2 5 6 7 7 7 8 8 8 9 10 10 11 11 11 12 12 12 13 14 14 14 15 15 14 13 13 13 12
6 5 6 7 6 6 8 11 12 11 10 12 17 14 5 4 4 4 5 5 6 8 9 9 9 9 9 9 10 11 11 12 12 13 13 14 14 14 14 13 12 13 12 12
4 7 8 12 13 12 13 14 15 17 17 16 16 15 11 6 4 3 3 4 5 7 8 10 9 9 9 9 9 9 10 11 12 13 13 13 12 12 12 12 12 11 11 11
4 7 9 12 10 11 13 15 17 19 20 19 17 17 10 7 4 1 1 3 4 6 7 8 9 9 10 10 10 10 11 11 12 13 12 11 11 11 11 11 11 11 11 10
5 5 6 8 8 10 11 12 13 14 15 17 17 13 7 8 7 5 3 2 3 4 6 7 9 9 9 10 10 11 12 12 12 12 12 12 12 11 11 11 11 11 11 10
9 7 6 7 7 10 4 3 8 11 11 11 10 8 9 10 10 5 3 3 3 3 4 6 7 7 8 8 9 10 11 12 12 12 12 12 12 12 11 11 11 11 10 10
14 9 6 5 7 10 6 2 5 8 6 5 7 8 9 10 9 8 5 5 5 5 5 5 6 7 8 9 10 12 12 12 12 13 13 12 13 13 12 12 11 10 10 9
10 11 7 7 7 7 3 6 7 7 5 4 4 6 8 7 9 9 7 8 8 7 4 3 4 6 9 10 12 13 13 13 13 13 13 13 13 13 13 12 11 9 9 9
6 8 11 11 9 8 5 7 2 4 2 3 4 6 7 7 10 10 10 10 9 7 5 3 4 6 8 11 12 13 13 13 12 12 12 12 12 12 12 12 10 10 10 10
6 6 8 8 10 8 4 3 1 4 4 5 6 7 8 10 12 12 11 10 9 7 5 4 4 5 7 11 13 13 13 12 13 13 13 12 12 11 10 12 11 11 11 11
8 7 4 7 7 5 4 5 6 5 6 7 8 9 10 11 12 12 12 11 9 8 6 4 4 5 6 9 12 13 13 14 15 14 14 13 13 11 11 12 12 11 9 8
7 8 9 10 11 11 11 9 7 7 9 10 10 10 10 11 12 12 11 10 8 7 5 4 5 6 7 8 10 11 13 15 16 16 14 13 13 12 11 9 8 8 8 8
10 7 9 14 14 12 11 10 10 11 12 12 12 12 11 11 12 12 11 9 7 5 4 5 6 7 8 9 10 12 15 16 17 15 13 13 12 12 11 9 7 7 6 6
13 13 13 13 11 11 13 13 14 15 15 14 14 14 12 11 12 11 10 8 6 5 4 5 6 7 9 10 12 13 15 17 18 15 13 11 10 10 10 11 10 12 10 13
Wind_Direction
213 218 218 214 216 230 236 233 233 235 225 221 232 239 238 231 228 232 232 231 228 227 226 218 209 205 201 198 196 194 193 193 189 189 191 193 196 196 197 198 198 197 197 196
224 231 230 228 225 229 236 239 238 239 231 228 238 242 241 237 233 233 233 232 230 229 226 218 209 202 200 198 197 196 196 193 192 194 194 197 197 197 196 195 201 201 199 197
227 234 229 228 226 226 231 234 234 232 225 233 246 248 240 237 235 234 236 235 234 230 227 219 209 204 201 200 198 197 197 195 196 195 192 190 191 191 193 198 201 203 201 199
237 236 233 230 227 222 232 230 235 234 228 226 222 247 236 231 229 229 231 230 231 229 228 225 214 207 203 202 199 199 198 197 196 193 193 189 192 195 200 198 198 198 201 201
235 228 224 228 227 220 230 229 232 235 235 242 224 240 245 225 228 227 227 226 226 226 225 224 218 211 206 202 198 199 199 199 197 195 196 196 200 204 199 196 197 196 197 201
250 245 233 233 231 225 226 224 234 234 233 237 227 229 247 223 227 228 226 225 224 224 222 223 221 213 206 199 196 197 198 199 197 197 198 200 203 202 197 195 194 194 194 197
249 238 226 222 226 218 208 197 201 205 212 229 221 225 240 231 225 229 227 224 222 220 220 219 217 211 204 196 195 195 197 198 196 197 200 202 204 203 201 197 197 193 192 195
251 241 212 206 215 211 207 203 209 211 214 221 212 226 237 230 225 228 233 231 226 222 218 216 213 210 205 198 194 193 196 197 195 197 200 202 203 203 203 201 197 197 197 198
270 266 231 218 217 208 206 212 224 246 251 233 215 232 238 229 224 224 228 229 226 222 215 212 208 205 203 198 195 193 193 194 194 196 197 200 201 201 201 199 200 199 199 195
271 273 263 231 219 214 216 205 202 211 216 228 225 229 228 205 211 215 220 222 222 216 212 209 204 201 198 194 190 190 191 191 190 192 194 196 198 199 198 196 197 197 197 192
264 266 273 240 213 207 200 201 205 210 226 228 231 232 223 219 210 214 217 219 220 213 206 202 198 193 188 185 184 183 186 186 187 189 190 192 194 195 195 195 197 196 194 190
269 268 267 252 240 247 216 203 202 205 204 225 240 242 171 222 222 222 223 219 217 210 200 193 185 179 178 179 180 180 181 183 184 184 186 188 188 188 190 193 194 192 191 188
292 270 280 254 206 234 228 216 218 234 226 219 226 230 151 255 247 236 233 223 207 193 185 178 173 173 174 174 176 177 178 179 178 178 180 181 183 185 188 189 187 186 185 184
298 257 254 272 293 274 255 246 235 230 226 222 228 240 243 261 262 241 228 219 199 184 177 174 172 171 169 169 172 173 174 173 173 174 176 178 181 183 184 182 180 180 180 179
308 272 270 277 279 269 258 250 242 232 232 232 234 240 245 249 258 247 213 193 179 176 179 178 172 168 167 166 167 167 168 168 168 170 173 176 175 175 174 173 173 173 174 175
306 284 286 277 273 268 260 249 242 237 235 241 247 244 251 261 268 256 192 175 182 180 176 176 174 170 170 168 166 165 167 167 166 168 170 167 166 166 166 167 166 166 166 166
264 267 283 275 286 283 250 235 230 226 229 232 237 246 266 262 262 261 249 207 195 188 183 182 183 181 176 173 170 168 165 163 165 165 163 163 162 161 161 159 159 160 160 160
236 248 258 277 278 242 245 250 233 226 231 241 252 267 268 261 257 251 256 251 256 231 201 196 189 183 175 169 167 159 157 161 161 160 159 159 158 157 155 157 158 156 155 157
216 221 241 255 263 268 274 286 248 234 236 286 274 278 282 284 262 246 266 293 283 266 232 211 198 180 168 167 162 155 156 159 160 160 160 160 158 155 155 156 155 152 150 150
203 212 235 246 257 255 317 326 296 235 230 341 319 304 300 284 244 245 285 288 288 290 270 223 189 170 166 164 159 158 159 161 165 163 159 156 156 154 154 152 148 144 142 140
193 208 225 240 253 266 323 330 307 198 273 325 305 307 299 264 262 290 298 285 277 276 269 234 196 180 171 163 163 163 163 167 161 153 149 150 151 149 145 141 139 137 134 132
223 221 218 226 237 248 2 0 295 303 319 310 303 304 298 291 290 292 292 289 283 278 263 230 203 183 166 167 167 166 166 156 148 146 144 144 143 138 138 135 134 136 135 133
231 232 243 234 252 293 291 277 273 284 298 308 307 304 303 299 298 298 293 287 277 262 247 223 195 173 170 174 173 166 155 148 146 143 141 138 135 134 137 137 137 137 138 137
242 237 249 261 263 277 286 282 279 290 295 301 301 301 302 298 298 297 291 282 272 256 233 205 179 172 173 173 171 158 149 148 144 141 138 137 135 132 130 129 134 138 142 142
252 248 252 260 270 281 277 279 287 295 298 302 304 299 294 296 295 293 288 277 261 251 227 203 189 177 170 164 158 151 150 147 141 138 136 135 131 130 124 116 112 124 125 140
240 243 247 257 267 272 280 287 291 294 294 298 300 299 297 292 292 291 284 275 254 231 209 197 185 168 160 155 152 151 152 148 141 139 139 136 133 129 125 119 100 75 93 97